GW7325 Weather Reports


time (UTC)temp
C
wind
direction
speed
KPH
gust
KPH
rain 1hr
cm
rain 24hr
cm
rain mn
cm
humidity
%
barometer
mb
20260505031503 15 193 6.4 29.0 0.00 0.00 0.00 55 1009.4
20260505031003 15 199 6.4 29.0 0.00 0.00 0.00 55 1009.8
20260505030503 15 203 6.4 20.9 0.00 0.00 0.00 54 1009.8
20260505030003 15 199 6.4 19.3 0.00 0.00 0.00 54 1009.4
20260505025503 15 195 6.4 22.5 0.00 0.00 0.00 54 1009.8
20260505025003 15 190 6.4 22.5 0.00 0.00 0.00 54 1009.8
20260505024503 15 184 6.4 25.7 0.00 0.00 0.00 54 1009.8
20260505024025 16 191 9.7 25.7 0.00 0.00 0.00 53 1009.4
20260505023503 16 200 8.0 22.5 0.00 0.00 0.00 52 1009.8
20260505023003 16 204 8.0 29.0 0.00 0.00 0.00 52 1009.8
20260505022503 16 203 8.0 29.0 0.00 0.00 0.00 52 1009.8
20260505022024 16 196 8.0 20.9 0.00 0.00 0.00 52 1009.8
20260505021503 16 187 6.4 22.5 0.00 0.00 0.00 52 1009.8
20260505021003 16 189 8.0 22.5 0.00 0.00 0.00 52 1009.8
20260505020504 16 194 8.0 24.1 0.00 0.00 0.00 51 1009.8
20260505020003 16 190 6.4 24.1 0.00 0.00 0.00 52 1009.4
20260505015503 16 189 6.4 24.1 0.00 0.00 0.00 51 1009.4
20260505015024 16 190 8.0 22.5 0.00 0.00 0.00 51 1009.4
20260505014524 16 190 6.4 22.5 0.00 0.00 0.00 50 1009.4
20260505014003 16 197 6.4 16.1 0.00 0.00 0.00 51 1009.4
20260505013504 17 199 6.4 16.1 0.00 0.00 0.00 50 1009.4
20260505013003 17 193 8.0 29.0 0.00 0.00 0.00 49 1009.4
20260505012503 17 189 8.0 29.0 0.00 0.00 0.00 49 1009.1
20260505012003 17 189 6.4 22.5 0.00 0.00 0.00 49 1009.1
20260505011503 17 195 6.4 22.5 0.00 0.00 0.00 49 1009.1
20260505011003 17 199 8.0 33.8 0.00 0.00 0.00 48 1009.1
20260505010503 17 197 8.0 33.8 0.00 0.00 0.00 47 1008.8
20260505010004 17 194 8.0 27.4 0.00 0.00 0.00 47 1008.4
20260505005503 17 195 8.0 27.4 0.00 0.00 0.00 47 1008.4
20260505005003 17 195 8.0 25.7 0.00 0.00 0.00 46 1008.4
20260505004524 18 186 8.0 20.9 0.00 0.00 0.00 46 1008.8
20260505004003 18 191 8.0 27.4 0.00 0.00 0.00 45 1008.1
20260505003524 18 192 8.0 27.4 0.00 0.00 0.00 45 1008.1
20260505003024 18 193 9.7 24.1 0.00 0.00 0.00 44 1007.7
20260505002503 18 198 9.7 27.4 0.00 0.00 0.00 43 1007.7
20260505002003 18 195 9.7 27.4 0.00 0.00 0.00 42 1007.4
20260505001503 19 195 6.4 24.1 0.00 0.00 0.00 40 1007.4
20260505001003 19 202 3.2 9.7 0.00 0.00 0.00 38 1007.1
20260505000524 19 212 3.2 9.7 0.00 0.00 0.00 37 1007.1
20260505000003 20 198 3.2 8.0 0.00 0.00 0.00 37 1006.7
20260504235503 20 199 3.2 14.5 0.00 0.00 0.00 36 1006.7
20260504235003 20 203 4.8 14.5 0.00 0.00 0.00 36 1006.7
20260504234503 20 214 6.4 17.7 0.00 0.00 0.00 35 1006.7
20260504234024 20 224 6.4 17.7 0.00 0.00 0.00 35 1006.7
20260504233524 20 226 4.8 17.7 0.00 0.00 0.00 35 1006.7
20260504233003 20 214 4.8 27.4 0.00 0.00 0.00 35 1006.7
20260504232504 21 209 4.8 27.4 0.00 0.00 0.00 35 1006.4
20260504232003 21 222 4.8 19.3 0.00 0.00 0.00 34 1006.7
20260504231503 21 226 4.8 20.9 0.00 0.00 0.00 33 1006.4
20260504231003 21 216 4.8 20.9 0.00 0.00 0.00 34 1006.0
20260504230503 21 226 6.4 20.9 0.00 0.00 0.00 34 1006.4
20260504230003 21 226 9.7 20.9 0.00 0.00 0.00 34 1006.4
20260504225504 21 221 8.0 25.7 0.00 0.00 0.00 33 1006.0
20260504225003 21 221 6.4 25.7 0.00 0.00 0.00 33 1006.0
20260504224503 21 216 6.4 25.7 0.00 0.00 0.00 33 1006.0
20260504224004 21 207 6.4 20.9 0.00 0.00 0.00 33 1006.0
20260504223503 21 216 4.8 22.5 0.00 0.00 0.00 33 1006.0
20260504223003 21 223 4.8 22.5 0.00 0.00 0.00 33 1006.0
20260504222524 21 238 4.8 22.5 0.00 0.00 0.00 34 1006.0
20260504222003 21 233 6.4 25.7 0.00 0.00 0.00 33 1006.0
20260504221503 21 221 8.0 33.8 0.00 0.00 0.00 32 1006.0
20260504221024 22 211 11.3 33.8 0.00 0.00 0.00 31 1006.0
20260504220503 22 211 9.7 33.8 0.00 0.00 0.00 31 1006.0
20260504220003 22 214 8.0 37.0 0.00 0.00 0.00 32 1006.0
20260504215503 22 216 9.7 37.0 0.00 0.00 0.00 32 1006.0
20260504215003 22 220 8.0 20.9 0.00 0.00 0.00 31 1006.0
20260504214503 22 221 8.0 32.2 0.00 0.00 0.00 32 1006.0
20260504214024 22 227 9.7 32.2 0.00 0.00 0.00 31 1006.0
20260504213503 22 229 9.7 40.2 0.00 0.00 0.00 32 1006.0
20260504213024 22 229 9.7 40.2 0.00 0.00 0.00 31 1006.0
20260504212503 22 236 8.0 33.8 0.00 0.00 0.00 32 1006.0
20260504212003 22 232 8.0 30.6 0.00 0.00 0.00 32 1006.0
20260504211524 22 224 8.0 30.6 0.00 0.00 0.00 31 1006.0
20260504211003 22 210 9.7 27.4 0.00 0.00 0.00 31 1006.0
20260504210503 21 213 9.7 32.2 0.00 0.00 0.00 32 1006.0
20260504210003 21 222 9.7 32.2 0.00 0.00 0.00 32 1006.0
20260504205503 21 213 9.7 32.2 0.00 0.00 0.00 32 1006.0
20260504205003 21 207 9.7 32.2 0.00 0.00 0.00 31 1006.0
20260504204524 21 212 9.7 29.0 0.00 0.00 0.00 31 1006.0
20260504204004 21 214 9.7 30.6 0.00 0.00 0.00 31 1006.0
20260504203503 21 209 11.3 37.0 0.00 0.00 0.00 31 1006.0
20260504203003 22 220 9.7 37.0 0.00 0.00 0.00 31 1006.0
20260504202503 22 233 6.4 22.5 0.00 0.00 0.00 31 1006.0
20260504202003 21 226 6.4 22.5 0.00 0.00 0.00 31 1006.0
20260504201503 21 229 8.0 29.0 0.00 0.00 0.00 31 1006.0
20260504201003 22 223 9.7 29.0 0.00 0.00 0.00 30 1006.0
20260504200503 22 218 9.7 33.8 0.00 0.00 0.00 29 1006.0
20260504200003 22 245 12.9 33.8 0.00 0.00 0.00 30 1006.0
20260504195503 21 258 11.3 25.7 0.00 0.00 0.00 32 1006.0
20260504195003 22 235 6.4 20.9 0.00 0.00 0.00 31 1005.7
20260504194503 21 216 8.0 24.1 0.00 0.00 0.00 31 1006.0
20260504194003 21 227 8.0 24.1 0.00 0.00 0.00 31 1006.0
20260504193503 21 235 8.0 22.5 0.00 0.00 0.00 31 1006.0
20260504193003 22 215 9.7 37.0 0.00 0.00 0.00 30 1006.0
20260504192524 22 221 11.3 37.0 0.00 0.00 0.00 30 1006.0
20260504192003 21 226 9.7 35.4 0.00 0.00 0.00 31 1006.0
20260504191503 22 211 9.7 37.0 0.00 0.00 0.00 29 1006.0
20260504191003 21 217 12.9 46.7 0.00 0.00 0.00 30 1006.0
20260504190524 21 230 12.9 46.7 0.00 0.00 0.00 30 1006.4
20260504190003 21 213 12.9 43.5 0.00 0.00 0.00 31 1006.4
20260504185503 21 200 12.9 45.1 0.00 0.00 0.00 29 1006.4
20260504185003 21 199 14.5 45.1 0.00 0.00 0.00 30 1006.4
20260504184503 21 204 11.3 45.1 0.00 0.00 0.00 30 1006.7
20260504184003 21 211 11.3 43.5 0.00 0.00 0.00 30 1006.7
20260504183503 21 214 12.9 43.5 0.00 0.00 0.00 31 1006.4
20260504183003 21 215 12.9 33.8 0.00 0.00 0.00 31 1006.7
20260504182503 21 222 12.9 32.2 0.00 0.00 0.00 30 1006.7
20260504182003 21 246 9.7 24.1 0.00 0.00 0.00 31 1006.7
20260504181524 21 240 9.7 29.0 0.00 0.00 0.00 31 1006.4
20260504181003 21 233 11.3 33.8 0.00 0.00 0.00 30 1006.7
20260504180503 20 228 11.3 37.0 0.00 0.00 0.00 32 1006.7
20260504180003 20 245 12.9 37.0 0.00 0.00 0.00 31 1006.7
20260504175503 20 259 12.9 33.8 0.00 0.00 0.00 31 1006.7
20260504175004 20 241 12.9 48.3 0.00 0.00 0.00 33 1006.7
20260504174503 20 233 12.9 48.3 0.00 0.00 0.00 31 1006.7
20260504174003 21 232 11.3 37.0 0.00 0.00 0.00 32 1006.7
20260504173503 20 243 11.3 37.0 0.00 0.00 0.00 31 1006.7
20260504173003 20 254 11.3 32.2 0.00 0.00 0.00 32 1007.1
20260504172503 20 251 11.3 32.2 0.00 0.00 0.00 32 1006.7
20260504172003 20 250 11.3 43.5 0.00 0.00 0.00 33 1007.1
20260504171503 20 235 12.9 43.5 0.00 0.00 0.00 31 1007.1
20260504171003 20 231 12.9 43.5 0.00 0.00 0.00 32 1006.7
20260504170524 20 221 12.9 51.5 0.00 0.00 0.00 34 1006.7
20260504151004 17 234 11.3 33.8 0.00 0.00 0.00 39 1008.1
20260504150503 17 229 9.7 32.2 0.00 0.00 0.00 38 1008.1
20260504141024 16 249 9.7 30.6 0.00 0.00 0.00 42 1008.8
20260504140503 16 249 9.7 30.6 0.00 0.00 0.00 41 1008.8
20260504130503 14 225 8.0 24.1 0.00 0.00 0.00 45 1009.4
20260504110503 8 177 1.6 8.0 0.00 0.00 0.00 59 1010.5
20260504100503 7 188 4.8 14.5 0.00 0.00 0.00 59 1010.1
20260504081503 7 169 3.2 9.7 0.00 0.00 0.00 58 1009.8
20260504081004 7 177 3.2 9.7 0.00 0.00 0.00 58 1010.1
20260504080504 7 186 3.2 9.7 0.00 0.00 0.00 58 1010.1
20260504050524 5 160 3.2 9.7 0.00 0.03 0.00 65 1010.1
20260504050004 5 162 4.8 9.7 0.00 0.03 0.00 64 1010.1
20260504045503 5 171 4.8 9.7 0.00 0.03 0.00 63 1009.8
20260504045003 5 169 4.8 9.7 0.00 0.03 0.00 61 1010.1
20260504044504 5 165 4.8 9.7 0.00 0.03 0.00 61 1010.1
20260504044003 5 165 4.8 9.7 0.00 0.03 0.00 62 1010.1
20260504043503 5 169 4.8 9.7 0.00 0.03 0.00 62 1010.1
20260504043003 5 179 4.8 9.7 0.00 0.03 0.00 61 1010.1
20260504042504 5 169 4.8 9.7 0.00 0.03 0.00 62 1009.8
20260504042003 5 168 4.8 9.7 0.00 0.03 0.00 62 1009.8
20260504041504 5 176 4.8 9.7 0.00 0.03 0.00 63 1009.8
20260504041003 5 169 4.8 11.3 0.00 0.03 0.00 64 1009.8
20260504040503 5 166 4.8 11.3 0.00 0.03 0.00 62 1009.8
20260504040004 5 165 4.8 9.7 0.00 0.03 0.00 62 1009.8
20260504035503 5 162 3.2 8.0 0.00 0.03 0.03 63 1009.4
20260504035003 5 166 3.2 8.0 0.00 0.03 0.03 66 1009.8
20260504034503 5 155 3.2 8.0 0.00 0.03 0.03 66 1009.8
20260504034003 5 147 3.2 6.4 0.00 0.03 0.03 64 1009.4
20260504033504 5 157 3.2 6.4 0.00 0.03 0.03 64 1009.4
20260504033003 5 168 4.8 6.4 0.00 0.03 0.03 64 1009.8
20260504032503 5 170 3.2 6.4 0.00 0.03 0.03 61 1009.4
20260504032003 5 163 4.8 8.0 0.00 0.03 0.03 61 1009.8